Location: Budapest
(47.4979°N, 19.0402°E)
Time: 17:13:39
(UTC+02:00)

Tiangong 2 - Pass Details

Date: 09 October 2017
Orbit: 388 x 391 km, 42.8° (Epoch: 23 October)

Event Time Altitude Azimuth Distance (km) Brightness Sun altitude
Exits shadow 06:18:59 - 229° (SW) 2,062 4.3 -6.7°
Reaches altitude 10° 06:20:46 10° 216° (SW) 1,419 3.6 -6.4°
Maximum altitude 06:23:21 23° 162° (SSE) 895 3.2 -6.0°
Drops below altitude 10° 06:25:57 10° 108° (ESE) 1,424 5.5 -5.5°
Sets 06:28:18 0° 93° (E) 2,282 8.1 -5.1°
